Regional Weather Roundup
Issued by NWS Newport/Morehead, NC

Current Version | Previous Version | Graphics & Text | Print | Product List | Glossary On
Versions: 1 2 3 4 5 6 7 8 9 10 11 12 13 14 15 16 17 18 19 20 21 22 23 24 25 26 27 28 29 30 31 32 33 34 35 36 37 38 39 40 41 42 43 44 45 46 47 48 49 50
132 ASUS42 KMHX 252313 RWRMHX WEATHER ROUNDUP FOR EASTERN NORTH CAROLINA NATIONAL WEATHER SERVICE NEWPORT/MOREHEAD CITY NC 700 PM EDT WED MAY 25 2016 NOTE: "FAIR" INDICATES FEW OR NO CLOUDS BELOW 12,000 FEET WITH NO SIGNIFICANT WEATHER AND/OR OBSTRUCTIONS TO VISIBILITY NCZ015>017-031-032-045>047-102-103-260000- NORTH COAST CITY SKY/WX TMP DP RH WIND PRES REMARKS EDENTON SUNNY 84 58 40 SW3 30.15S ELIZABETH CITY SUNNY 82 59 45 SW6 30.14S KITTY HAWK CLEAR 82 57 42 S3 30.14F MANTEO SUNNY 79 62 57 SW10 30.16S $$ NCZ045>047-081-094-103-104-260000- CENTRAL COAST CITY SKY/WX TMP DP RH WIND PRES REMARKS FRISCO SUNNY 73 68 84 SW8 30.18F $$ NCZ095-097-098-100-101-260000- SOUTHERN COAST CITY SKY/WX TMP DP RH WIND PRES REMARKS BEAUFORT SUNNY 75 66 73 SW12 30.18F CEDAR ISLAND NOT AVBL JACKSONVILLE SUNNY 79 56 45 S12 30.17F PINEY ISLAND NOT AVBL WILMINGTON SUNNY 80 59 48 S13 30.17F $$ NCZ011>013-027>030-043-044-078>080-089-090>093-098-260000- COASTAL PLAIN CITY SKY/WX TMP DP RH WIND PRES REMARKS AHOSKIE NOT AVBL CLINTON SUNNY 84 61 44 CALM 30.15F ELIZABETHTOWN SUNNY 86 55 35 SW3 30.15F GOLDSBORO SUNNY 86 53 31 W3 30.13F GREENVILLE MOSUNNY 84 59 42 CALM 30.16S HAVELOCK SUNNY 78 57 48 SW9 30.18F KENANSVILLE SUNNY 83 56 38 CALM 30.16S KINSTON MOSUNNY 86 52 30 S6 30.15F NEW BERN SUNNY 80 57 45 S10 30.17F RICHLANDS SUNNY 80 58 46 S10 30.17S ROCKY MOUNT MOSUNNY 85 57 38 SW5 30.14F WASHINGTON SUNNY 84 55 37 S6 30.14F WHITEVILLE SUNNY 82 62 50 S10 30.16S $$ AMZ130-135-150-152-154-156-158-170-250-252-270-ANZ085-086-088-633-658-670-260000- MARINE OBSERVATIONS STATION/POSITION TIME TEMP WIND PRES WAVE SWELL AIR SEA DIR/SP/G HT/PER HT/PER (UTC) (F) (DEG/KT/KT) (MB) (FT/S) (FT/S) CHESAPEAKE LIGHT 2200 76 130/ 13/ 15 1021.3 64 E VA BEACH 2250 66 61 190/ 6/ 8 1020.9 2/ 8 2/ 8 DUCK 2200 61 150/ 7/ 8 1020.2 2 E DUCK 2211 65 N/A 2/ 9 OREGON INLET 2200 73 190/ 15/ 17 1021.4 13E OREGON INLT 2200 68 N/A 2/ 8 2/ 8 HATTERAS CG 2200 70 200/ 7/ 11 1021.8 DIAMOND BUOY 2250 74 73 220/ 10/ 10 1022.1 2/ 8 2/ 8 CAPE LOOKOUT 2300 75 210/ 8/ 11 1021.8 BEAUFORT LAB 2200 71 200/ 11/ 13 1021.7 30 SE NEW RVR IN 2225 74 N/A 2/ 8 27 SE WRIGHTSVLE 2208 76 74 210/ 10/ 12 1022.9 5 SE WRIGHTSVLE 2208 75 73 210/ 12/ 14 1022.9 225 S CAPE HAT 2250 75 79 50/ 8/ 10 1022.8 2/ 7 2/ 7 41 SE CHARLESTON 2250 78 79 180/ 6/ 8 1022.1 2/ 8 2/ 8 $$

USA.gov is the U.S. government's official web portal to all federal, state and local government web resources and services.